DMSP 5D-2 F13 DEB, 42299

Orbit data source: Space-Track

DMSP 5D-2 F13 DEB, 42299 is space debris in SSO originally from a launch on Fri, 24 Mar 1995 UTC launched from the Air Force Western Test Range (AFWTR). Debris objects in space refer to the collection of defunct objects orbiting the Earth. Examples of debris include non-operational satellites, rocket bodies, and fragments generated from explosions, collisions, or faulty payload assembly.

Loading next visibility...
Identifier
42299, 1995-015HR
Orbit
SSO
Country
Flag of USUS
Related business
Manufacturer
Unknown
Mission
Spacecraft
Bus & Motor
Unknown
Mass
Unknown
Launch date (UTC)
1995-03-24 (31 years ago)
Launch vehicle
Unknown
Launch site
Air Force Western Test Range (AFWTR)
Object type
Payload
Rocket body
Debris
Shape & HBR
Unknown shape, 0.1 m
Radar Cross Section
Small (<0.1 m²)

Expand to show TLE details & history
Last TLE update: 19 hours ago

TLE from 19 hours ago
0 DMSP 5D-2 F13 DEB
1 42299U 95015HR  25288.61930707  .00034012  00000-0  55382-2 0  9999
2 42299  98.7078 347.7553 0010060 329.4882  30.5736 14.70872314524882
Epoch: 2025-10-15T14:51Z
TLE epoch observation values (Epoch: 2025-10-15T14:51:48.130Z)
Latitude
-0.00005°
Longitude
100.41398°
Altitude
655.174 km
Speed
7.533 km/s
True Right ascension
23h 11m 01s
True Declination
0° 00' 00"
Sunlit
Object was in full shadow at epoch
Visualization orbit readout
Latitude
Unknown
Longitude
Unknown
Altitude
Unknown
Speed
Unknown
Apparent Right ascension
Unknown
Apparent Declination
Unknown
Sunlit
N/A
Visualization observer readout
Local Sidereal Time
04:21:36
Azimuth
Unknown
Elevation
Unknown
Doppler factor
Unknown
Orbital elements
Apogee altitude
662.451 km
Perigee altitude
648.3 km
Semi-major axis
7,033.513 km
Eccentricity
0.00101
Inclination
98.7078°
RAAN
347.7553°
Arg. of periapsis
329.4882°
True anomaly
30.6323°
Mean anomaly
30.5736°
Eccentric anomaly
30.60294°
Mean motion
3.67947 °/min
Orbital period
97.84 mins
BSTAR
0.0055382

Documentation

Showing up to 5 results
|